Location: ?
(35.4064°N, 139.3593°E)
Time: 19:37:01
(UTC+00:00)

ISS - Visible Passes

Search period start: 12 December 2025 00:00
Search period end: 22 December 2025 00:00
Orbit: 416 x 420 km, 51.6° (Epoch: 12 December)

Date Brightness Start Highest point End Pass type
(mag) Time Alt. Az. Time Alt. Az. Time Alt. Az.
12 Dec -3.7 20:52:15 10° SW 20:55:37 83° SE 20:58:59 10° NE visible
13 Dec -2.5 20:05:05 14° SSW 20:07:42 42° SE 20:10:55 10° ENE visible
14 Dec -1.1 19:20:42 20° ESE 19:20:42 20° ESE 19:22:30 10° ENE visible
14 Dec -2.9 20:53:43 12° W 20:56:28 31° NW 20:59:31 10° NNE visible
15 Dec -3.4 20:08:47 49° N 20:08:47 49° N 20:11:41 10° NE visible
16 Dec -0.7 19:23:27 12° NE 19:23:27 12° NE 19:23:41 10° NE visible
16 Dec -1.8 20:56:26 13° NW 20:57:27 14° NNW 20:59:21 10° N visible
17 Dec -1.5 20:10:49 15° N 20:10:49 15° N 20:11:47 10° NNE visible
